Starlink 32424

operational
NORAD ID: 61548 Int'l Des: 2024-184 Owner: SPXS Country: US Constellation: starlink
LEOCIRCULAR

About Starlink 32424

Description loading...

Live Position

Loading 3D Globe...

Upcoming Passes

Altitude History

Altitude vs Time

uPlot chart will show altitude changes over time

Two-Line Element Set

1 61548U 24184S 25259.88275726 -.00001313 00000-0 -32241-4 0 9997
2 61548 53.1593 101.4485 0000820 104.3485 255.7607 15.30180824 51897
Epoch: Sep 16, 2025 • Age: 27 hours

Current Status

Altitude 477.7 km
Velocity 7.63 km/s
Sub-Earth Point -7.47°S, 96.62°E
Launch Date Oct 15, 2024
Age 0.9 years
Type internet

Technical Details

Classification Payload
Mass 730.00 kg
Dry Mass 700.00 kg
Total Mass 730.00 kg
Length 0.30 m
Diameter 4.10 m
Span 29.00 m
Shape Box + pan
Manufacturer SPXS
Bus Type Starlink V2M
Phase Status In Orbit
Owner/State SPXS/US

Large Constellations

Loading constellations...